This demonstration page uses our WeatherBlox Daily Observations layout. Learn more.

Left ArrowRight Arrow

44.8408, -93.29828

Hourly Observations for November 11, 2016

Temp ( °F °C ) Dew Point ( °F °C ) Humidity (%) Winds ( mph kmh ) Pressure ( in mb ) Visibility ( mi km ) Precip ( " mm )
12:53 am 00:53 Clear 48 8.9 31 -0.6 52 52 NNW 9 15 30.25 1024 10 16 0.00 0.00
1:53 am 01:53 Clear 46 7.8 31 -0.6 56 56 NNW 9 15 30.28 1025 10 16 0.00 0.00
2:53 am 02:53 Clear 45 7.2 31 -0.6 58 58 NNW 7 11 30.30 1026 10 16 0.00 0.00
3:53 am 03:53 Mostly Clear 44 6.7 31 -0.6 60 60 N 13 20 30.32 1027 10 16 0.00 0.00
4:53 am 04:53 Clear 43 6.1 30 -1.1 60 60 N 15 24 30.36 1028 10 16 0.00 0.00
5:53 am 05:53 Clear 41 5 30 -1.1 65 65 N 12 19 30.39 1029 10 16 0.00 0.00
6:53 am 06:53 Mostly Clear 40 4.4 30 -1.1 68 68 N 8 13 30.42 1030 10 16 0.00 0.00
7:53 am 07:53 Sunny 41 5 30 -1.1 65 65 N 12 19 30.45 1031 10 16 0.00 0.00
8:53 am 08:53 Sunny 42 5.6 31 -0.6 65 65 NNE 14 22 30.48 1032 10 16 0.00 0.00
9:53 am 09:53 Sunny 44 6.7 30 -1.1 58 58 N 13 20 30.50 1033 10 16 0.00 0.00
10:53 am 10:53 Sunny 45 7.2 29 -1.7 54 54 N 8 13 30.50 1033 10 16 0.00 0.00
11:53 am 11:53 Sunny 47 8.3 29 -1.7 50 50 VRB 7 11 30.51 1033 10 16 0.00 0.00
12:53 pm 12:53 Sunny 48 8.9 29 -1.7 48 48 VRB 3 6 30.48 1032 10 16 0.00 0.00
1:53 pm 13:53 Sunny 48 8.9 27 -2.8 44 44 NNW 7 11 30.48 1032 10 16 0.00 0.00
2:53 pm 14:53 Sunny 49 9.4 27 -2.8 43 43 N 9 15 30.48 1032 10 16 0.00 0.00
3:31 pm 15:31 Sunny 48 8.9 27 -2.8 44 44 N 7 11 30.50 1033 10 16 0.00 0.00
3:53 pm 15:53 Sunny 48 8.9 26 -3.3 42 42 N 6 9 30.48 1032 10 16 0.00 0.00
4:53 pm 16:53 Clear 46 7.8 26 -3.3 46 46 Calm 30.48 1032 10 16 0.00 0.00
5:53 pm 17:53 Clear 44 6.7 27 -2.8 51 51 Calm 30.49 1033 10 16 0.00 0.00
6:53 pm 18:53 Clear 43 6.1 27 -2.8 53 53 Calm 30.48 1032 10 16 0.00 0.00
7:53 pm 19:53 Clear 41 5 27 -2.8 57 57 Calm 30.49 1032 10 16 0.00 0.00
8:53 pm 20:53 Clear 39 3.9 28 -2.2 65 65 Calm 30.48 1032 10 16 0.00 0.00
9:53 pm 21:53 Clear 39 3.9 27 -2.8 62 62 S 3 6 30.47 1032 10 16 0.00 0.00
10:53 pm 22:53 Clear 39 3.9 27 -2.8 62 62 S 5 7 30.45 1031 10 16 0.00 0.00
11:53 pm 23:53 Clear 37 2.8 28 -2.2 70 70 SSW 6 9 30.45 1031 10 16 0.00 0.00

Powered by AerisWeather